Flag Weather past 2 weeks in Baltimore, Maryland, U.S.A.

Now
31 °F

Passing clouds.


Feels Like: 22 °F
Forecast: 25 / 38 °F
Wind: 10 mph from West

Location: Baltimore-Washington International Airport

Current Time: Nov 28, 2014 at 7:33:24 AM

Latest Report: Nov 28, 2014 at 6:54 AM


Visibility: 10 mi

Pressure: 30.24 "Hg

Humidity: 69%

Dew point: 22 °F

Location of BaltimoreLocation

Historic Weather in Baltimore — Graph

°F

Baltimore temperature yesterday

Maximum temperature yesterday: 45 °F (at 11:54 AM)
Minimum temperature yesterday: 33 °F (at 12:54 AM)
Average temperature yesterday: 38 °F

Past Weeks' High & Low Weather Summary

 TemperatureHumidityPressure
High71 °F (Nov 24, 2:54 PM)100% (Nov 17, 12:03 PM)30.55 "Hg (Nov 17, 12:03 PM)
Low19 °F (Nov 22, 5:54 AM)26% (Nov 22, 1:54 PM)29.55 "Hg (Nov 17, 2:54 PM)
Average39 °F60%30.10 "Hg
* Reported Nov 13 5:54 AM — Nov 28 5:54 AM, Baltimore, Weather by CustomWeather, © 2014

Note: Actual official high and low records may vary slightly from our data, if they occured in-between our weather recording intervals... More about our weather records

Advertising

Baltimore weather history for previous 24 hours

 ConditionsComfort  
Time TempWeatherWind HumidityBarometerVisibility
5:54 AM
Nov 28
31 °FClear.10 mph69%30.22 "Hg10 mi
4:54 AM31 °FClear.10 mph69%30.20 "Hg10 mi
3:54 AM32 °FPassing clouds.8 mph66%30.19 "Hg10 mi
2:54 AM32 °FPassing clouds.6 mph66%30.18 "Hg10 mi
1:54 AM34 °FPassing clouds.10 mph61%30.16 "Hg10 mi
12:54 AM34 °FPassing clouds.12 mph67%30.15 "Hg10 mi
11:54 PM
Nov 27
35 °FPassing clouds.7 mph78%30.15 "Hg10 mi
10:54 PM37 °FLight snow. Mostly cloudy.14 mph79%30.15 "Hg9 mi
9:54 PM36 °FPassing clouds.7 mph75%30.15 "Hg10 mi
8:54 PM34 °FPassing clouds.3 mph79%30.14 "Hg10 mi
7:54 PM35 °FPassing clouds.3 mph75%30.13 "Hg10 mi
6:54 PM36 °FPassing clouds.5 mph73%30.11 "Hg10 mi
5:54 PM38 °FPassing clouds.5 mph73%30.09 "Hg10 mi
4:54 PM40 °FPartly cloudy.3 mph65%30.07 "Hg10 mi
3:54 PM41 °FBroken clouds.10 mph58%30.06 "Hg10 mi
2:54 PM43 °FPartly sunny.9 mph56%30.03 "Hg10 mi
1:54 PM44 °FPartly sunny.12 mph53%30.03 "Hg10 mi
12:54 PM44 °FBroken clouds.7 mph58%30.03 "Hg10 mi
11:54 AM45 °FPartly sunny.8 mph60%30.03 "Hg10 mi
10:54 AM43 °FPartly sunny.5 mph65%30.04 "Hg10 mi
9:54 AM38 °FBroken clouds.3 mph76%30.06 "Hg10 mi
8:54 AM37 °FScattered clouds.5 mph76%30.05 "Hg10 mi
7:54 AM35 °FScattered clouds.No wind85%30.03 "Hg10 mi
Weather by CustomWeather, © 2014

See weather overviewHow to use our weather pages